����,���ϕ���(m/s),���ϕ���,�ő�u�ԕ���(m/s),�ő啗��������,�C��(��),���x(%),10���Ԉړ��ώZ�J��(mm),1���Ԉړ��ώZ�J��(mm),���J��(mm),�݌v�J��(mm)
2022-11-14T00:00:00+09:00,2.8,�k�k��,5.8,�k�k��,12.8,89.2,0,0,1.5,1.5
2022-11-14T00:01:00+09:00,3,�k�k��,5.8,�k�k��,12.8,88.2,0,0,0,1.5
2022-11-14T00:02:00+09:00,2.9,�k�k��,5.7,�k��,12.8,87.5,0,0,0,1.5
2022-11-14T00:03:00+09:00,2.9,�k�k��,5.7,�k��,12.7,87.4,0,0,0,1.5
2022-11-14T00:04:00+09:00,2.8,�k�k��,5.7,�k��,12.7,87.9,0,0,0,1.5
2022-11-14T00:05:00+09:00,2.7,�k�k��,5.7,�k��,12.7,88,0,0,0,1.5
2022-11-14T00:06:00+09:00,2.7,�k�k��,5.7,�k��,12.7,87.9,0,0,0,1.5
2022-11-14T00:07:00+09:00,2.8,�k�k��,5.7,�k��,12.6,88,0,0,0,1.5
2022-11-14T00:08:00+09:00,2.9,�k�k��,5.7,�k��,12.6,88.2,0,0,0,1.5
2022-11-14T00:09:00+09:00,2.9,�k�k��,5.7,�k��,12.6,88.5,0,0,0,1.5
2022-11-14T00:10:00+09:00,2.9,�k�k��,5.7,�k��,12.5,88.7,0,0,0,1.5
2022-11-14T00:11:00+09:00,2.9,�k�k��,6.7,�k�k��,12.5,89,0,0,0,1.5
2022-11-14T00:12:00+09:00,3,�k�k��,6.7,�k�k��,12.5,89.2,0,0,0,1.5
2022-11-14T00:13:00+09:00,3.2,�k�k��,6.7,�k�k��,12.4,89.5,0,0,0,1.5
2022-11-14T00:14:00+09:00,3.5,�k�k��,6.7,�k�k��,12.5,89.3,0,0,0,1.5
2022-11-14T00:15:00+09:00,3.7,�k�k��,6.7,�k�k��,12.5,89.2,0,0,0,1.5
2022-11-14T00:16:00+09:00,3.7,�k�k��,6.7,�k�k��,12.4,89,0,0,0,1.5
2022-11-14T00:17:00+09:00,3.6,�k�k��,6.7,�k�k��,12.4,89,0,0,0,1.5
2022-11-14T00:18:00+09:00,3.6,�k�k��,6.7,�k�k��,12.3,89.2,0,0,0,1.5
2022-11-14T00:19:00+09:00,3.7,�k�k��,6.7,�k�k��,12.2,89.7,0,0,0,1.5
2022-11-14T00:20:00+09:00,3.7,�k�k��,6.7,�k�k��,12.2,90.5,0,0,0,1.5
2022-11-14T00:21:00+09:00,3.6,�k��,6.7,�k��,12.2,91,0,0,0,1.5
2022-11-14T00:22:00+09:00,3.6,�k��,6.7,�k��,12.2,91.4,0,0,0,1.5
2022-11-14T00:23:00+09:00,3.5,�k��,6.7,�k��,12.2,91.8,0,0,0,1.5
2022-11-14T00:24:00+09:00,3.5,�k��,6.4,�k��,12.2,92.1,0,0,0,1.5
2022-11-14T00:25:00+09:00,3.6,�k��,6.4,�k��,12.3,91.8,0,0,0,1.5
2022-11-14T00:26:00+09:00,3.7,�k��,6.4,�k��,12.2,91.5,0,0,0,1.5
2022-11-14T00:27:00+09:00,3.9,�k��,7.1,���k��,12.2,91.6,0,0,0,1.5
2022-11-14T00:28:00+09:00,4,�k��,7.1,���k��,12.3,91.8,0,0,0,1.5
2022-11-14T00:29:00+09:00,4.1,�k��,7.1,���k��,12.3,91.4,0,0,0,1.5
2022-11-14T00:30:00+09:00,4.3,�k��,7.1,���k��,12.3,91,0,0,0,1.5
2022-11-14T00:31:00+09:00,4.4,�k��,7.1,���k��,12.3,90.5,0,0,0,1.5
2022-11-14T00:32:00+09:00,4.5,�k��,7.1,���k��,12.3,90.3,0,0,0,1.5
2022-11-14T00:33:00+09:00,4.4,�k��,7.1,���k��,12.3,90.2,0,0,0,1.5
2022-11-14T00:34:00+09:00,4.5,�k��,8.1,�k��,12.3,90,0,0,0,1.5
2022-11-14T00:35:00+09:00,4.7,�k��,8.5,�k��,12.4,90,0,0,0,1.5
2022-11-14T00:36:00+09:00,4.7,�k��,8.5,�k��,12.5,89.5,0,0,0,1.5
2022-11-14T00:37:00+09:00,4.6,�k��,8.5,�k��,12.5,88.5,0,0,0,1.5
2022-11-14T00:38:00+09:00,4.5,�k�k��,8.5,�k��,12.4,88,0,0,0,1.5
2022-11-14T00:39:00+09:00,4.5,�k�k��,8.5,�k��,12.5,87.8,0,0,0,1.5
2022-11-14T00:40:00+09:00,4.3,�k�k��,8.5,�k��,12.5,87.5,0,0,0,1.5
2022-11-14T00:41:00+09:00,4.2,�k�k��,8.5,�k��,12.4,87.6,0,0,0,1.5
2022-11-14T00:42:00+09:00,4,�k�k��,8.5,�k��,12.3,87.7,0,0,0,1.5
2022-11-14T00:43:00+09:00,3.9,�k�k��,8.5,�k��,12.3,88.2,0,0,0,1.5
2022-11-14T00:44:00+09:00,3.6,�k�k��,8.5,�k��,12.4,88.2,0,0,0,1.5
2022-11-14T00:45:00+09:00,3.3,�k�k��,5.9,�k��,12.4,87.9,0,0,0,1.5
2022-11-14T00:46:00+09:00,3.1,�k�k��,5.9,�k��,12.3,87.8,0,0,0,1.5
2022-11-14T00:47:00+09:00,3.1,�k�k��,5.9,�k��,12.3,88,0,0,0,1.5
2022-11-14T00:48:00+09:00,3,�k�k��,5.9,�k��,12.3,88,0,0,0,1.5
2022-11-14T00:49:00+09:00,2.8,�k�k��,5.3,�k�k��,12.3,88.3,0,0,0,1.5
2022-11-14T00:50:00+09:00,2.7,�k�k��,5.3,�k�k��,12.2,88.8,0,0,0,1.5
2022-11-14T00:51:00+09:00,2.5,�k�k��,5.3,�k�k��,12.2,89.2,0,0,0,1.5
2022-11-14T00:52:00+09:00,2.4,�k�k��,4.7,�k��,12.2,89.8,0,0,0,1.5
2022-11-14T00:53:00+09:00,2.5,�k�k��,5,�k��,12.1,90,0,0,0,1.5
2022-11-14T00:54:00+09:00,2.6,�k�k��,5,�k��,12.2,89.9,0,0,0,1.5
2022-11-14T00:55:00+09:00,2.7,�k�k��,5,�k��,12.2,89.7,0,0,0,1.5
2022-11-14T00:56:00+09:00,2.7,�k�k��,5,�k��,12.2,89.4,0,0,0,1.5
2022-11-14T00:57:00+09:00,2.6,�k�k��,5,�k��,12.2,89.2,0,0,0,1.5
2022-11-14T00:58:00+09:00,2.7,�k�k��,5.8,�k,12.2,89.3,0,0,0,1.5
2022-11-14T00:59:00+09:00,2.7,�k�k��,5.8,�k,12.1,89.2,0,0,0,1.5
2022-11-14T01:00:00+09:00,2.8,�k�k��,5.8,�k,12.1,89.2,0,0,0,1.5
2022-11-14T01:01:00+09:00,2.8,�k�k��,5.8,�k,12.1,89.4,0,0,0,1.5
2022-11-14T01:02:00+09:00,2.8,�k�k��,5.8,�k,12,89.6,0,0,0,1.5
2022-11-14T01:03:00+09:00,2.7,�k�k��,5.8,�k,12,89.9,0,0,0,1.5
2022-11-14T01:04:00+09:00,2.5,�k,5.8,�k,11.9,90.2,0,0,0,1.5
2022-11-14T01:05:00+09:00,2.5,�k,5.8,�k,11.9,90.7,0,0,0,1.5
2022-11-14T01:06:00+09:00,2.3,�k�k��,5.8,�k,11.8,91,0,0,0,1.5
2022-11-14T01:07:00+09:00,2.2,�k�k��,5.8,�k,11.9,91.3,0,0,0,1.5
2022-11-14T01:08:00+09:00,2,�k�k��,4.4,�k,11.8,91.5,0,0,0,1.5
2022-11-14T01:09:00+09:00,1.9,�k�k��,3.6,�k,11.8,91.5,0,0,0,1.5
2022-11-14T01:10:00+09:00,1.7,�k�k��,3.1,�k��,11.9,91.9,0,0,0,1.5
2022-11-14T01:11:00+09:00,1.6,�k�k��,3.1,�k��,11.8,92.1,0,0,0,1.5
2022-11-14T01:12:00+09:00,1.6,�k�k��,3.1,�k��,11.8,92.2,0,0,0,1.5
2022-11-14T01:13:00+09:00,1.6,�k�k��,3.1,�k��,11.8,92.5,0,0,0,1.5
2022-11-14T01:14:00+09:00,1.6,�k�k��,3.6,�k�k��,11.8,92.6,0,0,0,1.5
2022-11-14T01:15:00+09:00,1.7,�k�k��,3.6,�k�k��,11.8,92.7,0,0,0,1.5
2022-11-14T01:16:00+09:00,1.8,�k,6.8,�k��,11.9,92.7,0,0,0,1.5
2022-11-14T01:17:00+09:00,2.1,�k�k��,6.8,�k��,11.9,92.8,0,0,0,1.5
2022-11-14T01:18:00+09:00,2.2,�k,6.8,�k��,11.9,92.3,0,0,0,1.5
2022-11-14T01:19:00+09:00,2.4,�k,6.8,�k��,11.9,92.1,0,0,0,1.5
2022-11-14T01:20:00+09:00,2.7,�k�k��,6.8,�k��,11.9,92,0,0,0,1.5
2022-11-14T01:21:00+09:00,3.1,�k�k��,6.8,�k��,11.9,91.7,0,0,0,1.5
2022-11-14T01:22:00+09:00,3.3,�k�k��,7.3,�k�k��,11.9,91.7,0,0,0,1.5
2022-11-14T01:23:00+09:00,3.4,�k�k��,7.3,�k�k��,11.9,91.5,0,0,0,1.5
2022-11-14T01:24:00+09:00,3.3,�k�k��,7.3,�k�k��,11.9,91.2,0,0,0,1.5
2022-11-14T01:25:00+09:00,3.3,�k�k��,7.3,�k�k��,11.9,91.1,0,0,0,1.5
2022-11-14T01:26:00+09:00,3.3,�k�k��,7.3,�k�k��,11.9,91.2,0,0,0,1.5
2022-11-14T01:27:00+09:00,3.2,�k�k��,7.3,�k�k��,11.9,91.3,0,0,0,1.5
2022-11-14T01:28:00+09:00,3.2,�k�k��,7.3,�k�k��,11.9,91.4,0,0,0,1.5
2022-11-14T01:29:00+09:00,3.2,�k�k��,7.3,�k�k��,11.9,91.4,0,0,0,1.5
2022-11-14T01:30:00+09:00,3.1,�k�k��,7.3,�k�k��,11.9,91.4,0,0,0,1.5
2022-11-14T01:31:00+09:00,2.8,�k�k��,7.3,�k�k��,11.9,91.6,0,0,0,1.5
2022-11-14T01:32:00+09:00,2.7,�k�k��,5.2,�k�k��,11.9,91.7,0,0,0,1.5
2022-11-14T01:33:00+09:00,2.8,�k�k��,5.3,�k�k��,11.9,91.6,0,0,0,1.5
2022-11-14T01:34:00+09:00,2.9,�k�k��,5.3,�k�k��,12,91.4,0,0,0,1.5
2022-11-14T01:35:00+09:00,2.8,�k�k��,5.3,�k�k��,12,91,0,0,0,1.5
2022-11-14T01:36:00+09:00,2.7,�k�k��,5.3,�k�k��,11.9,90.8,0,0,0,1.5
2022-11-14T01:37:00+09:00,2.6,�k�k��,5.3,�k�k��,11.9,90.7,0,0,0,1.5
2022-11-14T01:38:00+09:00,2.6,�k�k��,5.3,�k�k��,11.9,90.9,0,0,0,1.5
2022-11-14T01:39:00+09:00,2.7,�k�k��,5.3,�k�k��,11.8,91.1,0,0,0,1.5
2022-11-14T01:40:00+09:00,2.8,�k�k��,5.3,�k�k��,11.9,91,0,0,0,1.5
2022-11-14T01:41:00+09:00,2.9,�k�k��,5.3,�k�k��,11.9,91,0,0,0,1.5
2022-11-14T01:42:00+09:00,2.8,�k�k��,5.3,�k�k��,11.9,90.7,0,0,0,1.5
2022-11-14T01:43:00+09:00,2.7,�k�k��,5.3,�k,11.9,90.3,0,0,0,1.5
2022-11-14T01:44:00+09:00,2.7,�k�k��,5.3,�k,11.9,90.3,0,0,0,1.5
2022-11-14T01:45:00+09:00,2.8,�k�k��,5.3,�k,11.9,90.3,0,0,0,1.5
2022-11-14T01:46:00+09:00,3,�k�k��,5.3,�k,11.9,90,0,0,0,1.5
2022-11-14T01:47:00+09:00,3.2,�k�k��,5.3,�k,12,89.4,0,0,0,1.5
2022-11-14T01:48:00+09:00,3.1,�k�k��,5.3,�k��,12,88.6,0,0,0,1.5
2022-11-14T01:49:00+09:00,3,�k�k��,5.7,�k,12,88.1,0,0,0,1.5
2022-11-14T01:50:00+09:00,3,�k�k��,5.7,�k,12,87.7,0,0,0,1.5
2022-11-14T01:51:00+09:00,3.1,�k�k��,5.7,�k,12,87.2,0,0,0,1.5
2022-11-14T01:52:00+09:00,3.2,�k�k��,5.7,�k,12.1,86.7,0,0,0,1.5
2022-11-14T01:53:00+09:00,3.3,�k��,5.7,�k,12.2,85.5,0,0,0,1.5
2022-11-14T01:54:00+09:00,3.4,�k��,5.7,�k,12.2,84.4,0,0,0,1.5
2022-11-14T01:55:00+09:00,3.3,�k��,5.7,�k,12.1,84.4,0,0,0,1.5
2022-11-14T01:56:00+09:00,3.3,�k��,5.7,�k,12.1,84.9,0,0,0,1.5
2022-11-14T01:57:00+09:00,3.1,�k��,5.7,�k,12,85,0,0,0,1.5
2022-11-14T01:58:00+09:00,3.2,�k��,5.7,�k,12,85.6,0,0,0,1.5
2022-11-14T01:59:00+09:00,3.2,�k��,5.4,���k��,12,86,0,0,0,1.5
2022-11-14T02:00:00+09:00,3.2,�k��,5.4,���k��,11.9,85.9,0,0,0,1.5
2022-11-14T02:01:00+09:00,3.1,�k��,5.4,���k��,12,85.9,0,0,0,1.5
2022-11-14T02:02:00+09:00,3,�k�k��,4.8,�k�k��,11.9,85.9,0,0,0,1.5
2022-11-14T02:03:00+09:00,2.9,�k�k��,4.8,�k�k��,11.8,86.5,0,0,0,1.5
2022-11-14T02:04:00+09:00,2.8,�k�k��,4.8,�k�k��,11.7,87.2,0,0,0,1.5
2022-11-14T02:05:00+09:00,2.7,�k�k��,4.8,�k�k��,11.7,87.7,0,0,0,1.5
2022-11-14T02:06:00+09:00,2.6,�k�k��,4.8,�k�k��,11.7,88.2,0,0,0,1.5
2022-11-14T02:07:00+09:00,2.6,�k�k��,4.8,�k�k��,11.7,88.8,0,0,0,1.5
2022-11-14T02:08:00+09:00,2.7,�k�k��,5.5,�k�k��,11.7,89.1,0,0,0,1.5
2022-11-14T02:09:00+09:00,2.6,�k�k��,5.5,�k�k��,11.7,89.1,0,0,0,1.5
2022-11-14T02:10:00+09:00,2.5,�k�k��,5.5,�k�k��,11.7,88.9,0,0,0,1.5
2022-11-14T02:11:00+09:00,2.4,�k�k��,5.5,�k�k��,11.7,88.8,0,0,0,1.5
2022-11-14T02:12:00+09:00,2.4,�k�k��,5.5,�k�k��,11.6,88.6,0,0,0,1.5
2022-11-14T02:13:00+09:00,2.4,�k�k��,5.5,�k�k��,11.6,88.5,0,0,0,1.5
2022-11-14T02:14:00+09:00,2.5,�k�k��,5.5,�k�k��,11.5,88.9,0,0,0,1.5
2022-11-14T02:15:00+09:00,2.7,�k�k��,5.5,�k�k��,11.5,89.3,0,0,0,1.5
2022-11-14T02:16:00+09:00,2.8,�k�k��,5.5,�k�k��,11.5,89.9,0,0,0,1.5
2022-11-14T02:17:00+09:00,2.8,�k�k��,5.5,�k�k��,11.5,90.3,0,0,0,1.5
2022-11-14T02:18:00+09:00,2.6,�k�k��,4.9,�k,11.5,90.2,0,0,0,1.5
2022-11-14T02:19:00+09:00,2.5,�k�k��,4.6,�k,11.5,90.1,0,0,0,1.5
2022-11-14T02:20:00+09:00,2.4,�k�k��,4.6,�k,11.5,90.2,0,0,0,1.5
2022-11-14T02:21:00+09:00,2.7,�k�k��,4.9,�k�k��,11.5,89.9,0,0,0,1.5
2022-11-14T02:22:00+09:00,2.7,�k�k��,4.9,�k�k��,11.5,89.9,0,0,0,1.5
2022-11-14T02:23:00+09:00,2.7,�k�k��,4.9,�k�k��,11.5,89.9,0,0,0,1.5
2022-11-14T02:24:00+09:00,2.7,�k�k��,4.9,�k�k��,11.4,89.8,0,0,0,1.5
2022-11-14T02:25:00+09:00,2.6,�k�k��,4.9,�k�k��,11.4,90,0,0,0,1.5
2022-11-14T02:26:00+09:00,2.6,�k��,4.9,�k�k��,11.5,90.3,0,0,0,1.5
2022-11-14T02:27:00+09:00,2.6,�k�k��,4.9,�k�k��,11.5,90.5,0,0,0,1.5
2022-11-14T02:28:00+09:00,2.7,�k�k��,4.9,�k�k��,11.5,90.5,0,0,0,1.5
2022-11-14T02:29:00+09:00,2.7,�k��,4.9,�k�k��,11.4,90.4,0,0,0,1.5
2022-11-14T02:30:00+09:00,2.8,�k��,4.9,�k�k��,11.4,90.7,0,0,0,1.5
2022-11-14T02:31:00+09:00,2.7,�k��,4.2,���k��,11.5,90.9,0,0,0,1.5
2022-11-14T02:32:00+09:00,2.7,�k��,4.4,�k�k��,11.6,90.4,0,0,0,1.5
2022-11-14T02:33:00+09:00,2.8,�k�k��,5,�k��,11.7,89.6,0,0,0,1.5
2022-11-14T02:34:00+09:00,2.9,�k�k��,5,�k��,11.7,89,0,0,0,1.5
2022-11-14T02:35:00+09:00,2.8,�k�k��,5,�k��,11.6,88.7,0,0,0,1.5
2022-11-14T02:36:00+09:00,3,�k�k��,5,�k��,11.6,88.7,0,0,0,1.5
2022-11-14T02:37:00+09:00,3,�k�k��,5.1,�k�k��,11.6,88.8,0,0,0,1.5
2022-11-14T02:38:00+09:00,3.1,�k�k��,5.9,�k��,11.6,88.8,0,0,0,1.5
2022-11-14T02:39:00+09:00,3.2,�k�k��,5.9,�k��,11.7,88.7,0,0,0,1.5
2022-11-14T02:40:00+09:00,3.4,�k�k��,5.9,�k��,11.8,88,0,0,0,1.5
2022-11-14T02:41:00+09:00,3.4,�k�k��,5.9,�k��,11.8,87.1,0,0,0,1.5
2022-11-14T02:42:00+09:00,3.5,�k�k��,5.9,�k��,11.7,86.7,0,0,0,1.5
2022-11-14T02:43:00+09:00,3.5,�k��,5.9,�k��,11.6,86.8,0,0,0,1.5
2022-11-14T02:44:00+09:00,3.5,�k��,5.9,�k��,11.6,87.2,0,0,0,1.5
2022-11-14T02:45:00+09:00,3.6,�k��,5.9,�k��,11.6,87.6,0,0,0,1.5
2022-11-14T02:46:00+09:00,3.7,�k��,5.9,�k��,11.6,87.8,0,0,0,1.5
2022-11-14T02:47:00+09:00,3.9,�k��,6.8,�k��,11.7,87.7,0,0,0,1.5
2022-11-14T02:48:00+09:00,4,�k��,6.8,�k��,11.7,87,0,0,0,1.5
2022-11-14T02:49:00+09:00,4,�k��,6.8,�k��,11.7,86.3,0,0,0,1.5
2022-11-14T02:50:00+09:00,4.1,�k��,7.7,�k��,11.6,86.3,0,0,0,1.5
2022-11-14T02:51:00+09:00,4.2,�k��,7.7,�k��,11.6,86.5,0,0,0,1.5
2022-11-14T02:52:00+09:00,4.2,�k��,7.7,�k��,11.6,86.6,0,0,0,1.5
2022-11-14T02:53:00+09:00,4.3,�k��,7.7,�k��,11.7,86.7,0,0,0,1.5
2022-11-14T02:54:00+09:00,4.4,�k��,7.7,�k��,11.7,86.2,0,0,0,1.5
2022-11-14T02:55:00+09:00,4.4,�k��,7.7,�k��,11.7,85.8,0,0,0,1.5
2022-11-14T02:56:00+09:00,4.3,�k��,7.7,�k��,11.7,85.7,0,0,0,1.5
2022-11-14T02:57:00+09:00,4.2,�k��,7.7,�k��,11.6,86.1,0,0,0,1.5
2022-11-14T02:58:00+09:00,4,�k��,7.7,�k��,11.6,86.3,0,0,0,1.5
2022-11-14T02:59:00+09:00,4,�k��,7.7,�k��,11.5,86.6,0,0,0,1.5
2022-11-14T03:00:00+09:00,3.8,�k��,6.2,�k��,11.5,87.2,0,0,0,1.5
2022-11-14T03:01:00+09:00,3.7,�k��,6.2,�k��,11.6,87.4,0,0,0,1.5
2022-11-14T03:02:00+09:00,3.7,�k��,7.6,�k�k��,11.5,87.5,0,0,0,1.5
2022-11-14T03:03:00+09:00,3.7,�k��,7.6,�k�k��,11.5,87.6,0,0,0,1.5
2022-11-14T03:04:00+09:00,3.6,�k��,7.6,�k�k��,11.5,87.7,0,0,0,1.5
2022-11-14T03:05:00+09:00,3.8,�k��,7.7,���k��,11.6,87.9,0,0,0,1.5
2022-11-14T03:06:00+09:00,3.9,�k��,7.7,���k��,11.8,87.5,0,0,0,1.5
2022-11-14T03:07:00+09:00,3.9,�k��,7.7,���k��,11.8,86.5,0,0,0,1.5
2022-11-14T03:08:00+09:00,4.1,�k��,7.7,���k��,11.7,85.8,0,0,0,1.5
2022-11-14T03:09:00+09:00,4,�k��,7.7,���k��,11.6,85.8,0,0,0,1.5
2022-11-14T03:10:00+09:00,4,�k��,7.7,���k��,11.6,86,0,0,0,1.5
2022-11-14T03:11:00+09:00,4,�k��,7.7,���k��,11.6,86.2,0,0,0,1.5
2022-11-14T03:12:00+09:00,3.9,�k��,7.7,���k��,11.7,86.2,0,0,0,1.5
2022-11-14T03:13:00+09:00,3.8,�k��,7.7,���k��,11.7,85.9,0,0,0,1.5
2022-11-14T03:14:00+09:00,3.7,�k��,7.7,���k��,11.7,85.6,0,0,0,1.5
2022-11-14T03:15:00+09:00,3.4,�k��,6.1,�k��,11.7,85.5,0,0,0,1.5
2022-11-14T03:16:00+09:00,3.4,�k��,6.1,�k��,11.6,85.7,0,0,0,1.5
2022-11-14T03:17:00+09:00,3.3,�k��,6.1,�k��,11.6,85.9,0,0,0,1.5
2022-11-14T03:18:00+09:00,3.1,�k��,5.8,�k��,11.6,86,0,0,0,1.5
2022-11-14T03:19:00+09:00,3.1,�k��,5.8,�k��,11.5,86.3,0,0,0,1.5
2022-11-14T03:20:00+09:00,3.1,�k��,5.8,�k��,11.6,86.5,0,0,0,1.5
2022-11-14T03:21:00+09:00,3.2,�k��,6.8,���k��,11.7,86.1,0,0,0,1.5
2022-11-14T03:22:00+09:00,3.4,�k��,6.8,���k��,11.7,85.3,0,0,0,1.5
2022-11-14T03:23:00+09:00,3.4,�k��,6.8,���k��,11.7,84.4,0,0,0,1.5
2022-11-14T03:24:00+09:00,3.5,�k��,6.8,���k��,11.7,84.1,0,0,0,1.5
2022-11-14T03:25:00+09:00,3.6,�k��,6.8,���k��,11.6,84.3,0,0,0,1.5
2022-11-14T03:26:00+09:00,3.4,�k��,6.8,���k��,11.6,84.6,0,0,0,1.5
2022-11-14T03:27:00+09:00,3.5,�k��,6.8,���k��,11.6,85,0,0,0,1.5
2022-11-14T03:28:00+09:00,3.6,�k��,6.8,���k��,11.6,85.1,0,0,0,1.5
2022-11-14T03:29:00+09:00,3.6,�k��,6.8,���k��,11.5,85.1,0,0,0,1.5
2022-11-14T03:30:00+09:00,3.8,�k��,6.8,���k��,11.5,85.4,0,0,0,1.5
2022-11-14T03:31:00+09:00,3.7,�k��,7.9,���k��,11.7,84.9,0,0,0,1.5
2022-11-14T03:32:00+09:00,3.7,�k��,7.9,���k��,11.8,83.6,0,0,0,1.5
2022-11-14T03:33:00+09:00,3.5,�k��,7.9,���k��,11.7,83,0,0,0,1.5
2022-11-14T03:34:00+09:00,3.5,�k��,7.9,���k��,11.7,83.3,0,0,0,1.5
2022-11-14T03:35:00+09:00,3.5,�k��,7.9,���k��,11.7,83.2,0,0,0,1.5
2022-11-14T03:36:00+09:00,3.6,�k��,7.9,���k��,11.7,83.1,0,0,0,1.5
2022-11-14T03:37:00+09:00,3.5,�k��,7.9,���k��,11.6,83.4,0,0,0,1.5
2022-11-14T03:38:00+09:00,3.4,�k��,7.9,���k��,11.6,84.1,0,0,0,1.5
2022-11-14T03:39:00+09:00,3.4,�k��,7.9,���k��,11.5,84.7,0,0,0,1.5
2022-11-14T03:40:00+09:00,3.3,�k��,7.9,���k��,11.6,84.9,0,0,0,1.5
2022-11-14T03:41:00+09:00,3.1,�k��,6.2,�k�k��,11.7,84.5,0,0,0,1.5
2022-11-14T03:42:00+09:00,3,�k��,6.2,�k�k��,11.7,83.6,0,0,0,1.5
2022-11-14T03:43:00+09:00,3.1,�k��,6.2,�k�k��,11.7,83.2,0,0,0,1.5
2022-11-14T03:44:00+09:00,3.3,�k��,6.2,�k�k��,11.7,83.1,0,0,0,1.5
2022-11-14T03:45:00+09:00,3.2,�k�k��,6.2,�k�k��,11.7,82.9,0,0,0,1.5
2022-11-14T03:46:00+09:00,3.2,�k�k��,6.2,�k�k��,11.7,82.8,0,0,0,1.5
2022-11-14T03:47:00+09:00,3.2,�k��,6.2,�k�k��,11.6,82.9,0,0,0,1.5
2022-11-14T03:48:00+09:00,3.4,�k��,6.2,�k�k��,11.7,82.9,0,0,0,1.5
2022-11-14T03:49:00+09:00,3.4,�k��,5.1,�k��,11.7,82.3,0,0,0,1.5
2022-11-14T03:50:00+09:00,3.4,�k��,5.1,�k��,11.8,82,0,0,0,1.5
2022-11-14T03:51:00+09:00,3.3,�k��,5.1,�k��,11.8,81.5,0,0,0,1.5
2022-11-14T03:52:00+09:00,3.3,�k��,5.1,�k��,11.8,81.6,0,0,0,1.5
2022-11-14T03:53:00+09:00,3.3,�k��,5.1,�k��,11.7,81.6,0,0,0,1.5
2022-11-14T03:54:00+09:00,3.2,�k��,5,�k��,11.7,82,0,0,0,1.5
2022-11-14T03:55:00+09:00,3.2,�k��,5.6,�k��,11.7,81.8,0,0,0,1.5
2022-11-14T03:56:00+09:00,3.2,�k��,5.6,�k��,11.8,81.3,0,0,0,1.5
2022-11-14T03:57:00+09:00,3.1,�k��,5.6,�k��,11.8,80.8,0,0,0,1.5
2022-11-14T03:58:00+09:00,2.8,�k��,5.6,�k��,11.7,81.4,0,0,0,1.5
2022-11-14T03:59:00+09:00,2.7,�k��,5.6,�k��,11.5,82.6,0,0,0,1.5
2022-11-14T04:00:00+09:00,2.6,�k�k��,5.6,�k��,11.4,83.5,0,0,0,1.5
2022-11-14T04:01:00+09:00,2.5,�k�k��,5.6,�k��,11.4,84.4,0,0,0,1.5
2022-11-14T04:02:00+09:00,2.5,�k��,5.6,�k��,11.4,85,0.5,0.5,0.5,2
2022-11-14T04:03:00+09:00,2.4,�k��,5.6,�k��,11.6,84.3,0.5,0.5,0.5,2
2022-11-14T04:04:00+09:00,2.3,�k��,5.6,�k��,11.7,83,0.5,0.5,0.5,2
2022-11-14T04:05:00+09:00,2.3,�k��,4.5,�k��,11.7,82.2,0.5,0.5,0.5,2
2022-11-14T04:06:00+09:00,2.3,�k��,4.5,�k��,11.6,82,0.5,0.5,0.5,2
2022-11-14T04:07:00+09:00,2.3,�k��,4.5,�k��,11.6,82.2,0.5,0.5,0.5,2
2022-11-14T04:08:00+09:00,2.4,�k�k��,4.5,�k��,11.5,83,0.5,0.5,0.5,2
2022-11-14T04:09:00+09:00,2.5,�k�k��,4.5,�k��,11.3,84.2,0.5,0.5,0.5,2
2022-11-14T04:10:00+09:00,2.6,�k��,4.5,�k��,11.2,85.2,0.5,0.5,0.5,2
2022-11-14T04:11:00+09:00,2.7,�k��,4.5,�k��,11.4,86,0.5,0.5,0.5,2
2022-11-14T04:12:00+09:00,2.8,�k��,4.7,�k��,11.5,85.4,0,0.5,0.5,2
2022-11-14T04:13:00+09:00,2.9,�k��,4.7,�k��,11.7,83.8,0,0.5,0.5,2
2022-11-14T04:14:00+09:00,3,�k��,4.7,�k��,11.7,82,0,0.5,0.5,2
2022-11-14T04:15:00+09:00,3.1,�k��,5,���k��,11.7,81.1,0,0.5,0.5,2
2022-11-14T04:16:00+09:00,3.1,�k��,6,��,11.8,80.3,0,0.5,0.5,2
2022-11-14T04:17:00+09:00,3.2,�k��,6,��,11.7,80.1,0,0.5,0.5,2
2022-11-14T04:18:00+09:00,3.3,�k��,6,��,11.7,80.4,0,0.5,0.5,2
2022-11-14T04:19:00+09:00,3.3,�k��,6,��,11.6,80.7,0,0.5,0.5,2
2022-11-14T04:20:00+09:00,3.3,�k��,6,��,11.6,81.1,0,0.5,0.5,2
2022-11-14T04:21:00+09:00,3.3,�k��,6,��,11.6,81.2,0,0.5,0.5,2
2022-11-14T04:22:00+09:00,3.2,�k��,6,��,11.6,81.3,0,0.5,0.5,2
2022-11-14T04:23:00+09:00,3.3,�k��,6,��,11.7,81,0,0.5,0.5,2
2022-11-14T04:24:00+09:00,3.4,�k��,6,��,11.8,79.8,0,0.5,0.5,2
2022-11-14T04:25:00+09:00,3.3,�k��,6,��,11.8,79,0,0.5,0.5,2
2022-11-14T04:26:00+09:00,3.3,�k��,5.4,�k��,11.7,79.1,0,0.5,0.5,2
2022-11-14T04:27:00+09:00,3.4,�k��,5.4,�k��,11.8,79.1,0,0.5,0.5,2
2022-11-14T04:28:00+09:00,3.4,�k��,5.4,�k��,11.7,78.8,0,0.5,0.5,2
2022-11-14T04:29:00+09:00,3.5,�k��,5.4,�k��,11.6,79,0,0.5,0.5,2
2022-11-14T04:30:00+09:00,3.4,�k��,5.4,�k��,11.7,79.3,0,0.5,0.5,2
2022-11-14T04:31:00+09:00,3.4,�k��,5.4,�k��,11.7,79.1,0,0.5,0.5,2
2022-11-14T04:32:00+09:00,3.4,�k��,5.4,�k��,11.7,78.8,0,0.5,0.5,2
2022-11-14T04:33:00+09:00,3.3,�k��,5.4,�k��,11.7,78.9,0,0.5,0.5,2
2022-11-14T04:34:00+09:00,3.1,�k��,5.1,���k��,11.6,79.8,0,0.5,0.5,2
2022-11-14T04:35:00+09:00,3,�k��,5.1,���k��,11.6,80.2,0,0.5,0.5,2
2022-11-14T04:36:00+09:00,3,�k��,5.1,���k��,11.7,79.8,0,0.5,0.5,2
2022-11-14T04:37:00+09:00,3,�k��,4.8,�k�k��,11.7,79.3,0,0.5,0.5,2
2022-11-14T04:38:00+09:00,2.9,�k��,5.1,�k��,11.7,78.9,0,0.5,0.5,2
2022-11-14T04:39:00+09:00,2.9,�k��,5.1,�k��,11.7,78.6,0,0.5,0.5,2
2022-11-14T04:40:00+09:00,2.9,�k��,5.1,�k��,11.8,78,0,0.5,0.5,2
2022-11-14T04:41:00+09:00,3,�k��,5.1,�k��,11.8,77.6,0,0.5,0.5,2
2022-11-14T04:42:00+09:00,3,�k��,5.1,�k��,11.8,77.5,0,0.5,0.5,2
2022-11-14T04:43:00+09:00,3,�k��,5.1,�k��,11.7,77.7,0,0.5,0.5,2
2022-11-14T04:44:00+09:00,3.1,�k��,5.1,�k��,11.7,78.4,0,0.5,0.5,2
2022-11-14T04:45:00+09:00,3.1,�k��,5.1,�k��,11.7,78.1,0,0.5,0.5,2
2022-11-14T04:46:00+09:00,3.1,�k��,5.1,�k��,11.7,77.6,0,0.5,0.5,2
2022-11-14T04:47:00+09:00,3,�k��,5.1,�k��,11.5,78.7,0,0.5,0.5,2
2022-11-14T04:48:00+09:00,3,�k��,5.2,�k�k��,11.5,80.2,0,0.5,0.5,2
2022-11-14T04:49:00+09:00,3.1,�k��,5.7,�k�k��,11.6,79.9,0,0.5,0.5,2
2022-11-14T04:50:00+09:00,3.1,�k��,5.7,�k�k��,11.5,80,0,0.5,0.5,2
2022-11-14T04:51:00+09:00,2.9,�k��,5.7,�k�k��,11.5,80.8,0,0.5,0.5,2
2022-11-14T04:52:00+09:00,2.8,�k��,5.7,�k�k��,11.6,80.5,0,0.5,0.5,2
2022-11-14T04:53:00+09:00,2.8,�k��,5.7,�k�k��,11.7,79.2,0,0.5,0.5,2
2022-11-14T04:54:00+09:00,2.8,�k��,5.7,�k�k��,11.6,78.8,0,0.5,0.5,2
2022-11-14T04:55:00+09:00,2.8,�k��,5.7,�k�k��,11.6,79.4,0,0.5,0.5,2
2022-11-14T04:56:00+09:00,2.7,�k��,5.7,�k�k��,11.4,79.9,0,0.5,0.5,2
2022-11-14T04:57:00+09:00,2.7,�k��,5.7,�k�k��,11.2,81.8,0,0.5,0.5,2
2022-11-14T04:58:00+09:00,2.6,�k�k��,5.7,�k�k��,11,84,0,0.5,0.5,2
2022-11-14T04:59:00+09:00,2.5,�k�k��,5.4,�k��,10.9,85.7,0,0.5,0.5,2
2022-11-14T05:00:00+09:00,2.4,�k�k��,3.5,�k�k��,10.9,86.7,0,0.5,0.5,2
2022-11-14T05:01:00+09:00,2.3,�k�k��,3.5,�k�k��,10.9,87.4,0,0.5,0.5,2
2022-11-14T05:02:00+09:00,2.4,�k�k��,3.5,�k�k��,11,88,0,0,0.5,2
2022-11-14T05:03:00+09:00,2.3,�k�k��,3.5,�k�k��,11.1,87.7,0,0,0.5,2
2022-11-14T05:04:00+09:00,2.3,�k�k��,3.5,�k�k��,11.1,87,0,0,0.5,2
2022-11-14T05:05:00+09:00,2.3,�k,3.4,�k,11.1,86.5,0,0,0.5,2
2022-11-14T05:06:00+09:00,2.3,�k,3.4,�k,11,86.6,0,0,0.5,2
2022-11-14T05:07:00+09:00,2.4,�k�k��,3.6,�k�k��,11,87.1,0,0,0.5,2
2022-11-14T05:08:00+09:00,2.5,�k�k��,3.7,�k�k��,10.9,87.4,0,0,0.5,2
2022-11-14T05:09:00+09:00,2.4,�k�k��,3.7,�k�k��,10.9,87.8,0,0,0.5,2
2022-11-14T05:10:00+09:00,2.4,�k�k��,3.7,�k�k��,10.8,88.2,0,0,0.5,2
2022-11-14T05:11:00+09:00,2.5,�k�k��,3.7,�k�k��,10.9,88.4,0,0,0.5,2
2022-11-14T05:12:00+09:00,2.5,�k�k��,3.7,�k�k��,11.1,88,0,0,0.5,2
2022-11-14T05:13:00+09:00,2.6,�k�k��,4.2,�k�k��,11.1,87.1,0,0,0.5,2
2022-11-14T05:14:00+09:00,2.6,�k�k��,4.2,�k�k��,11.3,85.8,0,0,0.5,2
2022-11-14T05:15:00+09:00,2.7,�k�k��,4.2,�k�k��,11.5,83.4,0,0,0.5,2
2022-11-14T05:16:00+09:00,2.7,�k�k��,4.2,�k�k��,11.4,81.9,0,0,0.5,2
2022-11-14T05:17:00+09:00,2.7,�k�k��,4.2,�k�k��,11.5,81.2,0,0,0.5,2
2022-11-14T05:18:00+09:00,2.7,�k�k��,4.2,�k�k��,11.3,81.3,0,0,0.5,2
2022-11-14T05:19:00+09:00,2.7,�k�k��,4.2,�k�k��,11,83,0,0,0.5,2
2022-11-14T05:20:00+09:00,2.7,�k�k��,4.2,�k�k��,10.9,84.5,0,0,0.5,2
2022-11-14T05:21:00+09:00,2.7,�k�k��,4.2,�k�k��,10.9,85.6,0,0,0.5,2
2022-11-14T05:22:00+09:00,2.7,�k�k��,4.2,�k�k��,10.9,86.3,0,0,0.5,2
2022-11-14T05:23:00+09:00,2.6,�k�k��,4.2,�k��,10.9,86.8,0,0,0.5,2
2022-11-14T05:24:00+09:00,2.5,�k�k��,3.9,�k��,10.9,87,0,0,0.5,2
2022-11-14T05:25:00+09:00,2.5,�k�k��,3.6,�k��,10.9,87.3,0,0,0.5,2
2022-11-14T05:26:00+09:00,2.5,�k�k��,3.8,�k�k��,10.9,87.4,0,0,0.5,2
2022-11-14T05:27:00+09:00,2.5,�k�k��,3.8,�k�k��,11,87.2,0,0,0.5,2
2022-11-14T05:28:00+09:00,2.4,�k�k��,3.8,�k�k��,10.9,86.9,0,0,0.5,2
2022-11-14T05:29:00+09:00,2.5,�k�k��,4.1,�k�k��,10.9,86.9,0,0,0.5,2
2022-11-14T05:30:00+09:00,2.6,�k�k��,4.6,�k��,10.9,86.8,0,0,0.5,2
2022-11-14T05:31:00+09:00,2.7,�k�k��,4.6,�k��,11.3,86.2,0,0,0.5,2
2022-11-14T05:32:00+09:00,2.7,�k�k��,4.6,�k��,11.6,82.8,0,0,0.5,2
2022-11-14T05:33:00+09:00,2.8,�k�k��,4.6,�k��,11.5,80.9,0,0,0.5,2
2022-11-14T05:34:00+09:00,2.7,�k�k��,4.6,�k��,11.5,80.2,0,0,0.5,2
2022-11-14T05:35:00+09:00,2.7,�k��,4.6,�k��,11.4,80,0,0,0.5,2
2022-11-14T05:36:00+09:00,2.7,�k��,4.6,�k��,11.4,79.5,0,0,0.5,2
2022-11-14T05:37:00+09:00,2.8,�k��,4.6,�k��,11.3,80.5,0,0,0.5,2
2022-11-14T05:38:00+09:00,2.8,�k��,4.6,�k��,11.2,81.6,0,0,0.5,2
2022-11-14T05:39:00+09:00,2.8,�k��,4.6,�k��,11.1,82.8,0,0,0.5,2
2022-11-14T05:40:00+09:00,2.7,�k��,4.1,�k,11.2,83.2,0,0,0.5,2
2022-11-14T05:41:00+09:00,2.7,�k�k��,4.1,�k,11.2,82.7,0,0,0.5,2
2022-11-14T05:42:00+09:00,2.6,�k�k��,4.1,�k,11.3,82.1,0,0,0.5,2
2022-11-14T05:43:00+09:00,2.6,�k�k��,4.1,�k,11.3,82,0,0,0.5,2
2022-11-14T05:44:00+09:00,2.6,�k�k��,4.1,�k,11.2,82.2,0,0,0.5,2
2022-11-14T05:45:00+09:00,2.7,�k�k��,4.1,�k,11.5,81.2,0,0,0.5,2
2022-11-14T05:46:00+09:00,2.7,�k�k��,4.1,�k,11.3,80,0,0,0.5,2
2022-11-14T05:47:00+09:00,2.7,�k�k��,4.1,�k,11.1,81.3,0,0,0.5,2
2022-11-14T05:48:00+09:00,2.7,�k�k��,4.1,�k�k��,11,82.7,0,0,0.5,2
2022-11-14T05:49:00+09:00,2.7,�k�k��,4.1,�k�k��,10.9,83.8,0,0,0.5,2
2022-11-14T05:50:00+09:00,2.7,�k�k��,4.1,�k�k��,10.9,85,0,0,0.5,2
2022-11-14T05:51:00+09:00,2.8,�k�k��,4.1,�k�k��,10.8,85.8,0,0,0.5,2
2022-11-14T05:52:00+09:00,2.9,�k�k��,4.1,�k�k��,10.8,86.5,0,0,0.5,2
2022-11-14T05:53:00+09:00,2.9,�k�k��,4.1,�k�k��,10.9,86.8,0,0,0.5,2
2022-11-14T05:54:00+09:00,2.9,�k�k��,4,�k�k��,10.8,87,0,0,0.5,2
2022-11-14T05:55:00+09:00,2.9,�k�k��,4,�k�k��,10.9,87.2,0,0,0.5,2
2022-11-14T05:56:00+09:00,2.9,�k�k��,4,�k�k��,10.9,87,0,0,0.5,2
2022-11-14T05:57:00+09:00,2.9,�k�k��,4,�k�k��,10.9,86.7,0,0,0.5,2
2022-11-14T05:58:00+09:00,2.9,�k�k��,4,�k�k��,11.1,86.3,0,0,0.5,2
2022-11-14T05:59:00+09:00,2.8,�k�k��,4.1,�k,11.2,85.2,0,0,0.5,2
2022-11-14T06:00:00+09:00,2.8,�k�k��,4.1,�k,11.1,84.5,0,0,0.5,2
2022-11-14T06:01:00+09:00,2.9,�k�k��,4.4,�k,11,84.6,0,0,0.5,2
2022-11-14T06:02:00+09:00,2.9,�k�k��,4.4,�k,11.1,84.7,0,0,0.5,2
2022-11-14T06:03:00+09:00,2.8,�k�k��,4.4,�k,11.2,83.7,0,0,0.5,2
2022-11-14T06:04:00+09:00,2.8,�k�k��,4.4,�k,11.2,83.2,0,0,0.5,2